Terminal Aerodrome Forecast
Issued by NWS Norman, OK

Home | Current Version | Previous Version | Text Only | Print | Product List | Glossary On
Versions: 1 2 3 4 5 6 7 8 9 10 11 12 13 14 15 16 17 18 19 20 21 22 23 24 25 26 27 28 29 30 31 32 33 34 35 36 37 38 39 40 41 42 43
000
FTUS44 KOUN 280527
TAFOKC
TAF
KOKC 280527Z 2806/2906 17010KT P6SM FEW050 OVC250
      TEMPO 2810/2814 6SM -TSRA BKN030CB
     FM281400 22013KT P6SM OVC025
     FM281700 18013G18KT P6SM BKN030 PROB30 2817/2821 6SM -TSRA
      BKN030CB=

USA.gov is the U.S. government's official web portal to all federal, state and local government web resources and services.